Home > Weather > Kathmandu > Past weeks

Flag for Nepal Past Weather in Kathmandu, Nepal — Yesterday and Last 2 Weeks

Now
81 °F

Broken clouds.


Feels Like: 81 °F
Forecast: 57 / 82 °F
Wind: 2 mph from Southwest

Location: Kathmandu Airport

Current Time: May 24, 2016 at 2:00:50 PM

Latest Report: May 24, 2016 at 1:05 PM


Visibility: N/A

Pressure: 29.80 "Hg (25.69 "Hg at 1305m altitude)

Humidity: 48%

Dew Point: 59 °F

Location of KathmanduLocation

Past Weather in Kathmandu — Graph

°F

Kathmandu Temperature Yesterday

Maximum temperature yesterday: 84 °F (at 3:05 PM)
Minimum temperature yesterday: 70 °F (at 1:35 AM)
Average temperature yesterday: 76 °F

High & Low Weather Summary for the Past Weeks

 TemperatureHumidityPressure
High86 °F (May 16, 2:35 PM)100% (May 12, 9:35 AM)30.09 "Hg (May 12, 9:35 AM)
Low59 °F (May 18, 3:35 AM)38% (May 18, 2:05 PM)29.68 "Hg (May 22, 3:35 PM)
Average73 °F73%29.90 "Hg
* Reported May 9 1:05 PM — May 24 1:05 PM, Kathmandu, Weather by CustomWeather, © 2016

Note: Actual official high and low records may vary slightly from our data, if they occured in-between our weather recording intervals... More about our weather records

Advertising

Kathmandu Weather History for the Previous 24 Hours

Scroll right to see more
 ConditionsComfort  
Time TempWeatherWind HumidityBarometerVisibility
1:05 PM
Tue, May 24
81 °FBroken clouds.2 mph48%29.80 "HgN/A
12:35 PM82 °FWarm.3 mph45%29.80 "HgN/A
12:05 PM81 °FBroken clouds.3 mph45%29.83 "HgN/A
11:35 AM81 °FBroken clouds.5 mph45%29.83 "HgN/A
11:05 AM81 °FPartly sunny.6 mph48%29.86 "HgN/A
10:35 AM79 °FScattered clouds.2 mph54%29.86 "HgN/A
10:05 AM79 °FPassing clouds.3 mph51%29.86 "HgN/A
9:35 AM79 °FPassing clouds.3 mph58%29.89 "HgN/A
9:05 AM77 °FPassing clouds.3 mph61%29.89 "Hg5 mi
8:35 AM75 °FMild.N/A65%29.89 "HgN/A
8:05 AM73 °FPassing clouds.3 mph78%29.89 "Hg4 mi
7:35 AM72 °FPassing clouds.2 mph78%29.89 "Hg5 mi
7:05 AM68 °FPassing clouds.5 mph94%29.89 "Hg5 mi
6:35 AM68 °FScattered clouds.2 mph83%29.89 "Hg4 mi
6:05 AM68 °FPartly sunny.2 mph83%29.86 "Hg5 mi
5:35 AM66 °FPassing clouds.3 mph88%29.86 "Hg4 mi
4:35 AM68 °FThunderstorms. Passing clouds.No wind88%29.83 "Hg4 mi
3:35 AM66 °FThunderstorms. Passing clouds.No wind88%29.86 "Hg4 mi
2:35 AM68 °FThunderstorms. Passing clouds.5 mph88%29.83 "Hg4 mi
1:35 AM68 °FPassing clouds.5 mph88%29.86 "Hg4 mi
12:35 AM72 °FThunderstorms. Passing clouds.No wind73%29.86 "Hg4 mi
12:05 AM73 °FThunderstorms. Passing clouds.5 mph69%29.86 "Hg4 mi
11:35 PM
Mon, May 23
72 °FThunderstorms. Passing clouds.3 mph78%29.89 "Hg4 mi
11:05 PM72 °FThunderstorms. Partly cloudy.2 mph83%29.89 "Hg4 mi
10:35 PM72 °FPassing clouds.3 mph78%29.89 "Hg4 mi
10:05 PM72 °FPassing clouds.2 mph78%29.89 "Hg4 mi
9:35 PM72 °FPassing clouds.5 mph78%29.86 "Hg4 mi
9:05 PM72 °FPassing clouds.6 mph83%29.86 "Hg5 mi
8:35 PM73 °FPassing clouds.6 mph78%29.83 "Hg5 mi
8:05 PM73 °FPassing clouds.3 mph83%29.83 "Hg5 mi
7:35 PM73 °FPassing clouds.3 mph78%29.80 "HgN/A
7:05 PM75 °FPassing clouds.6 mph69%29.80 "HgN/A
6:35 PM77 °FPassing clouds.3 mph61%29.77 "HgN/A
6:05 PM79 °FPassing clouds.6 mph58%29.77 "HgN/A
5:35 PM79 °FScattered clouds.8 mph65%29.77 "HgN/A
5:05 PM79 °FBroken clouds.8 mph65%29.80 "HgN/A
4:35 PM77 °FThunderstorms. Broken clouds.10 mph74%29.80 "HgN/A
4:05 PM81 °FBroken clouds.12 mph62%29.80 "HgN/A
3:35 PM82 °FBroken clouds.9 mph58%29.80 "HgN/A
3:05 PM84 °FPassing clouds.8 mph55%29.80 "HgN/A
2:35 PM82 °FPassing clouds.6 mph58%29.83 "HgN/A
2:05 PM82 °FScattered clouds.8 mph58%29.83 "HgN/A
Weather by CustomWeather, © 2016

See weather overviewHow to use our weather pages